Location: Newark
(45.9167°N, 5.5000°E)
Time: 21:06:49
(UTC+00:00)

ISS - Pass Details

Date: 21 January 2020
Orbit: 415 x 422 km, 51.6° (Epoch: 24 February)

Event Time Altitude Azimuth Distance (km) Brightness Sun altitude
Rises 18:04:22 0° 217° (SW) 2,366 0.8 -16.7°
Reaches altitude 10° 18:06:34 10° 207° (SSW) 1,504 -0.4 -17.1°
Maximum altitude 18:09:39 33° 142° (SE) 726 -2.8 -17.6°
Enters shadow 18:09:44 33° 138° (SE) 727 -2.9 -17.6°
